CAPE
0 0 0 0 0 0 0 0 0 0 0 0 0 0 0 0 0 0 0 0 0 0 0 0 0 0 0 0 0 0 0 0 0 0 0 0 0 0 0 0 0 0 0 0 0 0 0
4 0 0 0 0 0 0 0 0 0 0 0 0 0 0 0 0 0 0 0 0 0 0 0 0 0 0 0 0 0 0 0 0 0 0 0 0 0 0 0 0 0 0 0 0 0 0
0 3 1 0 1 0 0 0 0 0 0 0 0 0 0 0 0 0 0 0 0 0 0 0 0 0 0 0 0 0 0 0 0 0 0 0 0 0 0 0 0 0 0 0 0 0 0
0 1 1 1 0 2 1 0 0 0 0 0 0 0 0 0 0 0 0 0 0 0 0 0 0 0 0 0 0 0 0 0 0 0 0 0 0 0 0 0 0 0 0 0 0 0 0
6 2 0 0 2 1 0 2 0 0 0 0 0 0 0 0 0 0 0 0 0 0 0 0 0 0 0 0 0 0 0 0 0 0 0 0 0 0 0 0 0 0 0 0 0 0 0
7 3 5 0 0 1 1 1 2 0 0 0 0 0 0 0 0 0 0 0 0 0 0 0 0 0 0 0 0 0 0 0 0 0 0 0 0 0 0 0 0 0 0 0 0 0 0
1 5 6 2 0 0 0 2 1 1 0 0 0 0 0 0 0 0 0 0 0 0 0 0 0 0 0 0 0 0 0 0 0 0 0 0 0 0 0 0 0 0 0 0 0 0 0
4 5 6 2 0 0 0 0 2 0 1 2 2 0 0 0 0 0 0 0 0 0 0 0 0 0 0 0 0 0 0 0 0 0 0 0 0 0 0 0 0 0 0 0 0 0 0
1 0 2 2 4 3 0 0 1 1 2 2 3 0 0 0 0 0 0 0 0 0 0 0 0 0 0 0 0 0 0 0 0 0 0 0 0 0 0 0 0 0 0 0 0 0 0
5 5 4 1 3 9 4 0 0 5 1 1 2 1 0 0 0 0 0 0 0 0 0 0 0 0 0 0 0 0 0 0 0 0 0 0 0 0 0 0 0 0 0 0 0 0 0
11 8 11 20 17 11 2 0 0 0 7 2 2 2 0 0 0 0 0 0 0 0 0 0 0 0 0 0 0 0 0 0 0 0 0 0 0 0 0 0 0 0 0 0 0 0 0
15 12 5 4 21 4 1 0 0 0 2 2 1 3 0 0 0 0 0 0 0 0 0 0 0 0 0 0 0 0 0 0 0 0 0 0 0 0 0 0 0 0 0 0 0 0 0
5 16 13 20 14 12 11 3 2 0 4 16 2 3 0 0 0 0 0 0 0 0 0 0 0 0 0 0 0 0 0 0 0 0 0 0 0 0 0 0 0 0 0 0 0 0 0
7 4 6 11 27 6 4 2 6 8 19 3 3 2 0 0 0 0 0 0 0 0 0 0 0 0 0 0 0 0 0 0 0 0 0 0 0 0 0 0 0 0 0 0 0 0 0
9 0 6 10 0 0 0 0 0 10 47 2 4 1 0 0 0 0 0 0 0 0 0 0 0 0 0 0 0 0 0 0 0 0 0 0 0 0 0 0 0 0 0 0 0 0 0
0 3 8 4 0 0 0 0 4 20 4 3 0 0 1 0 6 2 0 0 0 0 0 0 0 0 0 0 0 0 0 0 0 0 0 0 0 0 0 0 0 0 0 0 0 0 0
4 5 13 0 1 0 1 1 3 15 1 0 0 0 2 9 20 3 0 0 0 0 0 0 0 0 0 0 0 0 0 0 0 0 0 0 0 0 0 0 0 0 0 0 0 0 0
11 5 0 2 0 1 1 3 1 0 0 0 1 0 0 13 0 0 0 0 0 0 0 0 0 0 0 0 0 0 0 0 0 0 0 0 0 0 0 0 0 0 0 0 0 0 1
11 7 2 3 0 1 1 2 1 1 0 0 1 1 2 0 0 0 0 0 0 0 0 0 0 0 0 0 0 0 0 0 0 0 0 0 0 0 0 0 0 0 0 0 0 0 0
14 4 1 3 14 5 2 1 2 0 0 0 0 0 0 1 0 0 0 0 0 0 0 0 0 0 0 0 0 0 0 0 0 0 0 0 0 0 0 0 0 0 0 0 0 0 0
8 10 1 0 2 2 2 5 10 0 0 0 0 0 0 0 0 0 0 0 0 0 0 0 0 0 0 0 0 0 0 0 0 0 0 0 0 0 0 0 0 0 0 0 0 0 0
7 6 4 0 0 17 23 22 11 3 0 0 0 0 0 0 0 0 0 0 0 0 0 0 0 0 0 0 0 0 0 0 0 0 0 0 0 0 0 0 0 0 0 0 0 0 0
16 10 6 3 2 0 7 11 14 3 0 1 0 0 0 0 0 0 0 0 0 0 0 0 0 0 0 0 0 0 0 0 0 0 0 0 0 0 0 0 0 0 0 0 0 0 0
16 10 12 9 6 7 7 5 1 0 0 0 0 0 0 0 0 0 0 0 0 0 0 0 0 0 0 0 0 0 0 0 0 0 0 0 0 0 0 0 0 0 0 0 0 0 0
7 17 14 18 14 8 15 5 1 0 0 0 0 0 0 3 0 0 0 0 0 0 0 0 0 0 0 0 0 0 0 0 0 0 0 0 0 0 0 0 0 1 0 0 0 0 1
13 17 16 10 2 4 8 5 0 0 0 0 0 0 0 0 0 0 0 0 0 0 0 0 0 0 0 0 0 0 0 0 0 0 0 0 0 0 0 0 0 0 0 0 0 0 2
6 16 7 11 10 2 6 0 0 0 0 0 0 0 0 0 0 0 0 0 0 0 0 0 0 0 0 0 0 0 0 0 0 0 0 0 0 0 0 0 0 0 0 0 0 0 0
9 9 11 21 21 19 2 2 0 0 0 0 0 0 0 0 0 0 0 0 0 0 0 0 0 0 0 0 0 0 0 0 0 0 0 0 0 0 0 0 0 0 0 0 0 0 0
7 7 1 10 4 2 0 0 0 0 0 0 0 0 0 0 0 0 0 0 0 0 0 0 0 0 0 0 0 0 0 0 0 0 0 0 0 0 0 0 0 0 0 0 0 0 0
CIN
0 0 0 0 0 0 0 0 0 0 0 0 0 0 0 0 0 0 0 0 0 0 0 0 0 0 0 0 0 0 0 0 0 0 0 0 0 0 0 0 0 0 0 0 0 0 0
-56 0 0 0 0 0 0 0 0 0 0 0 0 0 0 0 0 0 0 0 0 0 0 0 0 0 0 0 0 0 0 0 0 0 0 0 0 0 0 0 0 0 0 0 0 0 0
0 -1 0 0 0 0 0 0 0 0 0 0 0 0 0 0 0 0 0 0 0 0 0 0 0 0 0 0 0 0 0 0 0 0 0 0 0 0 0 0 0 0 0 0 0 0 0
0 0 0 0 0 0 0 0 0 0 0 0 0 0 0 0 0 0 0 0 0 0 0 0 0 0 0 0 0 0 0 0 0 0 0 0 0 0 0 0 0 0 0 0 0 0 0
0 0 0 0 -10 0 0 0 0 0 0 0 0 0 0 0 0 0 0 0 0 0 0 0 0 0 0 0 0 0 0 0 0 0 0 0 0 0 0 0 0 0 0 0 0 0 0
0 0 0 0 0 0 0 0 0 0 0 0 0 0 0 0 0 0 0 0 0 0 0 0 0 0 0 0 0 0 0 0 0 0 0 0 0 0 0 0 0 0 0 0 0 0 0
-1 0 0 0 0 0 0 0 0 0 0 0 0 0 0 0 0 0 0 0 0 0 0 0 0 0 0 0 0 0 0 0 0 0 0 0 0 0 0 0 0 0 0 0 0 0 0
0 -1 0 0 0 0 0 0 0 0 0 0 0 0 0 0 0 0 0 0 0 0 0 0 0 0 0 0 0 0 0 0 0 0 0 0 0 0 0 0 0 0 0 0 0 0 0
0 0 0 0 0 0 0 0 -1 -5 0 0 0 0 0 0 0 0 0 0 0 0 0 0 0 0 0 0 0 0 0 0 0 0 0 0 0 0 0 0 0 0 0 0 0 0 0
-2 0 0 0 0 0 0 0 0 -6 0 0 0 0 0 0 0 0 0 0 0 0 0 0 0 0 0 0 0 0 0 0 0 0 0 0 0 0 0 0 0 0 0 0 0 0 0
0 0 0 0 0 -6 -7 0 0 0 -1 0 0 0 0 0 0 0 0 0 0 0 0 0 0 0 0 0 0 0 0 0 0 0 0 0 0 0 0 0 0 0 0 0 0 0 0
0 -1 -4 -2 0 -8 -10 0 0 0 0 0 0 0 0 0 0 0 0 0 0 0 0 0 0 0 0 0 0 0 0 0 0 0 0 0 0 0 0 0 0 0 0 0 0 0 0
-2 0 0 0 0 0 0 0 0 0 0 -1 0 0 0 0 0 0 0 0 0 0 0 0 0 0 0 0 0 0 0 0 0 0 0 0 0 0 0 0 0 0 0 0 0 0 0
-2 -2 -4 0 0 0 0 0 0 0 -1 -3 0 0 0 0 0 0 0 0 0 0 0 0 0 0 0 0 0 0 0 0 0 0 0 0 0 0 0 0 0 0 0 0 0 0 0
0 0 -3 0 0 0 0 0 0 0 -1 0 0 0 0 0 0 -2 0 0 0 0 0 0 0 0 0 0 0 0 0 0 0 0 0 0 0 0 0 0 0 0 0 0 0 0 0
0 -7 -2 0 0 0 0 0 0 0 -17 0 0 0 0 0 -13 0 0 0 0 0 0 0 0 0 0 0 0 0 0 0 0 0 0 0 0 0 0 0 0 0 0 0 0 0 0
-4 -2 0 0 0 0 0 0 0 0 0 0 0 0 0 -1 0 0 0 0 0 0 0 0 0 0 0 0 0 0 0 0 0 0 0 0 0 0 0 0 0 0 0 0 0 0 0
0 0 0 0 0 0 0 0 0 0 0 0 0 0 0 0 0 0 0 0 0 0 0 0 0 0 0 0 0 0 0 0 0 0 0 0 0 0 0 0 0 0 0 0 0 0 0
0 -1 -7 0 0 -10 0 0 0 0 0 0 0 0 0 0 0 0 0 0 0 0 0 0 0 0 0 0 0 0 0 0 0 0 0 0 0 0 0 0 0 0 0 0 0 0 0
0 0 -8 0 -100 -80 0 0 0 0 0 0 0 0 0 0 0 0 0 0 0 0 0 0 0 0 0 0 0 0 0 0 0 0 0 0 0 0 0 0 0 0 0 0 0 0 0
0 0 0 0 0 0 0 0 0 -1 0 0 0 0 0 -1 0 0 0 0 0 0 0 0 0 0 0 0 0 0 0 0 0 0 0 0 0 0 0 0 0 0 0 0 0 0 0
0 0 0 0 0 0 0 0 0 0 0 0 0 0 0 0 0 -1 0 0 0 0 0 0 0 0 0 0 0 0 0 0 0 0 0 0 0 0 0 0 0 0 0 0 0 0 0
0 0 0 0 0 0 0 0 0 0 0 0 0 0 0 0 0 0 0 0 0 0 0 0 0 0 0 0 0 0 0 0 0 0 0 0 0 0 0 0 0 0 0 0 0 0 0
0 0 0 0 0 0 0 0 -1 -7 0 0 0 0 0 0 0 0 0 0 0 0 0 0 0 0 0 0 0 0 0 0 0 0 0 0 0 0 0 0 0 0 0 0 0 0 0
0 0 0 0 0 0 0 -1 0 -1 0 0 0 0 0 -1 -2 -1 0 0 0 0 0 0 0 0 0 0 0 0 0 0 0 0 0 0 0 0 0 0 0 0 0 0 0 0 0
0 0 0 0 0 0 0 -1 0 0 0 0 0 0 0 0 0 0 0 0 0 0 0 0 0 0 0 0 0 0 0 0 0 0 0 0 0 0 0 0 0 0 0 0 0 0 0
0 0 0 0 -2 0 -2 0 0 0 0 0 0 0 0 0 0 0 0 0 0 0 0 0 0 0 0 0 0 0 0 0 0 0 0 0 0 0 0 0 0 0 0 0 0 0 0
0 0 0 -6 -21 -11 0 0 0 0 0 0 0 0 0 0 0 0 0 0 0 0 0 0 0 0 0 0 0 0 0 0 0 0 0 0 0 0 0 0 0 0 0 0 0 0 0
0 0 0 -18 -30 -41 0 0 0 0 0 0 0 0 0 0 0 0 0 0 0 0 0 0 0 0 0 0 0 0 0 0 0 0 0 0 0 0 0 0 0 0 0 0 0 0 0
Wind_Speed
29 28 29 29 28 25 24 22 21 22 20 20 20 21 22 23 24 24 25 26 27 27 28 28 27 27 21 22 20 17 21 20 20 19 20 19 20 18 20 18 21 23 23 25 28 27 27
37 32 29 29 27 27 27 25 23 22 22 20 20 20 22 23 24 25 25 26 27 27 28 27 25 24 21 26 15 17 20 18 19 20 19 18 17 17 18 19 22 21 25 27 24 29 27
43 41 34 32 29 29 25 26 25 24 22 22 21 20 21 23 24 25 26 26 26 28 28 25 22 22 21 22 16 20 19 17 17 19 18 16 14 18 18 21 21 22 28 26 23 30 30
43 42 42 40 37 31 30 28 27 26 26 24 23 21 20 21 23 23 25 27 29 27 25 20 19 21 24 17 16 17 19 17 17 17 16 14 14 15 18 18 22 24 24 30 26 33 30
44 44 43 43 43 39 36 34 29 27 26 24 22 20 21 21 21 24 24 27 28 24 21 16 19 20 23 17 16 16 17 18 16 16 16 13 14 17 19 21 24 26 32 32 35 37 34
47 47 45 46 46 43 40 36 33 30 28 26 23 22 21 20 20 22 23 24 22 20 18 18 20 22 18 17 15 14 15 15 15 13 15 16 17 19 22 24 30 29 32 31 39 35 42
47 49 48 48 49 48 47 40 39 34 29 28 25 21 19 21 20 23 23 19 21 24 20 21 18 17 14 13 14 14 14 14 15 15 17 18 20 22 20 20 21 25 29 35 39 34 39
48 49 50 50 49 48 49 47 41 40 35 30 27 24 24 20 20 20 20 20 19 18 30 22 21 20 14 10 16 14 13 16 17 17 16 19 20 15 17 18 23 28 32 34 31 29 42
48 49 49 50 50 49 48 48 47 41 38 34 30 27 22 21 21 21 21 20 14 18 28 27 20 18 15 11 15 12 11 14 15 18 18 19 16 16 18 23 29 31 29 33 36 40 36
49 48 50 50 49 50 50 49 49 48 40 38 33 29 26 20 26 22 23 15 13 14 27 27 21 21 14 12 16 10 10 11 15 17 14 16 14 17 19 23 26 31 26 35 38 42 42
50 51 51 51 49 47 50 52 51 51 46 40 36 30 25 24 27 23 22 10 9 14 34 19 18 14 11 10 8 13 10 12 12 13 15 17 15 18 20 23 24 26 34 36 35 35 36
52 53 53 53 53 52 51 50 52 51 49 43 38 33 27 28 28 24 11 9 11 22 36 19 15 16 11 13 14 9 10 11 9 13 16 16 16 15 19 23 23 29 31 31 27 27 34
55 57 56 57 57 56 54 52 52 52 49 43 39 35 32 27 34 19 11 13 25 33 20 21 18 15 13 13 13 12 12 12 14 17 16 16 16 17 20 24 23 28 31 34 32 33 36
57 57 58 60 59 60 60 58 56 52 43 35 35 33 34 33 24 18 18 25 29 25 22 14 15 11 17 11 15 12 11 14 12 13 15 17 21 15 19 22 24 24 26 29 37 38 39
57 59 62 61 67 70 70 66 56 46 38 30 27 32 36 32 26 24 26 36 33 27 16 14 11 14 16 15 14 14 15 12 12 11 15 16 19 15 18 20 18 20 24 23 27 28 35
59 62 63 67 74 77 78 69 50 41 37 34 29 32 36 31 28 27 32 39 34 24 18 15 23 16 18 16 16 14 11 12 13 12 13 13 18 15 18 16 17 18 21 25 27 34 39
56 59 63 70 76 77 75 52 42 42 41 36 29 32 29 28 30 34 45 40 33 26 18 19 18 19 18 16 15 14 12 12 10 10 13 13 15 14 18 15 15 18 22 23 24 25 33
50 55 58 70 69 53 39 36 41 46 43 32 30 36 28 32 39 42 43 36 26 24 21 18 17 16 16 14 15 16 15 14 8 7 12 13 13 17 17 16 15 16 19 22 26 28 25
46 42 49 54 38 28 25 33 45 51 46 29 30 28 28 35 49 51 33 34 29 23 24 21 21 18 12 13 17 13 12 12 8 11 10 8 14 18 18 15 16 17 18 20 21 21 24
32 27 32 32 24 20 26 39 46 47 36 28 27 29 33 41 39 39 32 31 29 25 23 21 14 12 13 16 16 13 13 13 13 13 9 10 13 16 18 18 17 18 19 21 20 23 26
21 19 17 17 7 24 35 39 40 33 30 27 29 33 36 49 44 35 29 29 23 23 19 16 17 15 15 16 14 14 13 12 12 9 12 12 16 15 18 17 17 20 20 19 18 19 23
15 13 10 7 10 23 29 26 21 25 24 28 32 38 38 35 33 31 28 30 24 19 17 17 15 12 14 14 17 19 15 16 16 11 12 12 15 15 20 16 15 18 18 16 17 18 20
11 7 8 7 9 18 16 16 16 17 22 31 28 25 25 24 33 29 30 23 25 17 17 15 10 10 11 11 9 8 12 11 8 9 12 12 13 15 19 17 19 23 16 14 18 17 20
3 4 8 9 10 16 14 16 17 16 12 17 21 23 22 27 27 27 18 17 16 16 13 8 7 11 10 1 5 9 11 11 9 11 10 10 11 14 18 18 23 19 15 17 20 19 17
3 5 6 6 9 13 8 7 8 10 11 14 17 16 16 20 21 18 15 14 10 7 7 9 10 8 4 10 14 14 15 14 14 13 10 11 11 15 18 19 20 19 16 19 21 20 19
5 5 6 5 6 14 10 10 8 5 8 12 10 14 14 17 17 16 14 12 10 10 10 8 3 6 10 11 13 16 16 14 13 11 11 8 12 14 16 20 23 19 14 18 15 23 17
4 5 8 6 7 9 7 7 9 9 9 13 11 11 13 12 14 16 15 13 12 11 11 9 10 11 11 12 13 14 14 12 12 11 11 10 13 14 16 19 20 16 18 15 22 22 23
8 7 8 8 8 8 8 6 7 3 5 6 7 9 15 11 10 11 12 12 11 11 11 11 10 12 11 14 14 13 14 12 12 10 10 10 11 15 16 19 23 13 16 18 19 19 21
8 11 8 8 7 7 6 4 3 3 1 3 5 3 5 9 9 4 1 4 10 11 6 11 10 8 9 10 12 11 12 11 10 12 13 14 14 15 13 17 14 16 17 16 17 18 19
Wind_Direction
279 280 280 281 281 282 282 284 289 292 296 301 307 312 314 317 320 324 326 325 323 323 323 322 322 324 332 322 321 333 333 339 340 338 330 329 326 326 317 324 323 316 320 319 322 324 325
283 277 277 278 277 277 278 279 282 285 289 294 299 305 308 313 315 319 321 321 321 320 319 319 320 323 325 311 337 338 334 337 337 334 332 333 327 332 326 323 318 322 319 318 324 324 324
285 285 277 278 275 274 271 275 277 280 283 287 293 298 303 306 309 314 317 317 319 314 315 320 322 323 319 315 326 329 333 334 336 332 329 334 340 329 328 320 324 323 315 320 322 324 318
285 287 285 275 273 271 274 273 273 275 277 280 287 293 298 302 305 311 313 313 310 314 317 325 327 323 312 324 330 331 332 332 338 338 335 336 343 339 331 331 326 320 321 314 321 318 321
286 285 283 283 280 269 271 273 268 268 271 273 279 284 292 297 302 304 310 311 311 316 320 332 323 320 311 327 323 330 332 327 332 337 342 349 341 332 331 323 318 321 311 314 312 319 319
284 284 284 282 280 281 270 268 269 267 266 268 270 276 285 291 300 303 307 312 316 321 326 325 316 311 311 315 327 339 340 340 335 337 332 330 329 322 326 319 307 314 314 319 313 319 315
285 283 282 281 280 279 278 265 266 264 262 262 263 265 271 282 292 297 303 313 310 308 310 304 312 317 320 328 329 335 339 339 335 326 313 323 313 311 322 329 326 324 321 317 315 320 320
287 284 282 280 279 277 277 276 263 262 261 261 257 259 263 273 284 291 296 298 303 314 301 305 298 299 316 329 313 320 336 321 318 312 319 315 309 324 330 330 327 323 321 321 325 328 323
287 285 283 282 278 276 275 275 273 258 256 255 255 254 253 265 276 283 285 293 309 312 300 301 293 294 299 306 309 309 329 323 315 310 311 306 315 325 322 321 319 320 322 324 322 323 327
287 285 283 282 279 275 273 273 271 268 253 249 250 250 253 262 274 273 276 285 302 310 297 297 294 290 290 303 305 324 333 327 316 308 317 316 320 321 321 320 324 320 328 323 322 325 323
285 284 283 281 278 276 274 271 269 267 259 249 243 241 245 238 274 260 276 269 287 299 287 302 294 310 299 291 313 314 333 328 314 313 312 311 313 316 319 322 327 323 324 323 325 325 328
284 283 282 280 276 274 273 271 268 265 262 247 239 238 238 251 260 275 251 256 270 277 276 289 295 287 282 300 307 321 320 338 337 324 323 316 319 321 325 328 330 329 329 332 336 336 331
283 282 280 278 276 273 271 270 268 263 260 245 236 230 235 247 252 259 226 244 262 264 279 280 281 278 277 284 300 300 300 306 306 304 305 311 314 323 328 326 333 335 334 326 328 331 332
284 282 281 278 274 271 269 267 266 262 255 238 224 228 237 246 246 236 236 242 259 261 266 287 276 262 277 280 293 295 294 298 314 314 308 303 303 317 329 330 329 337 343 336 326 330 333
284 283 280 277 274 270 266 264 262 255 238 219 218 240 236 241 231 228 233 238 257 265 252 262 266 255 279 278 286 285 292 294 305 312 305 306 308 324 332 336 341 340 341 347 340 337 336
284 282 279 276 273 267 261 260 250 236 211 202 222 238 241 231 226 220 235 248 254 265 256 244 270 266 267 263 276 279 282 298 299 308 317 315 310 319 332 341 342 342 349 343 344 337 335
287 284 279 277 272 262 255 250 232 212 195 194 226 238 237 222 220 227 237 248 250 252 250 258 266 266 264 257 271 274 284 296 302 306 315 319 320 321 328 330 335 342 343 345 347 346 340
290 286 284 279 267 262 252 225 202 190 183 199 224 235 216 211 229 231 237 236 252 244 259 257 258 266 258 259 268 273 279 292 285 301 306 320 327 319 325 329 334 341 346 350 344 344 344
290 286 292 287 263 243 216 193 182 177 179 201 217 235 224 212 226 228 238 235 242 248 242 254 259 268 265 263 271 273 282 296 285 293 305 327 324 321 327 331 334 336 345 350 349 349 344
286 296 307 310 246 226 189 173 170 173 181 203 218 226 218 224 232 222 225 233 241 244 248 255 261 263 264 263 278 269 275 290 292 295 320 332 318 312 314 326 336 333 338 344 347 343 344
304 306 327 351 43 133 142 148 154 168 182 205 224 222 217 213 220 218 230 231 233 236 248 248 259 252 253 265 272 274 278 283 294 303 311 319 310 313 316 322 329 331 334 341 343 343 343
311 331 356 47 80 113 129 144 166 178 196 214 215 207 214 210 219 216 228 231 220 231 240 247 248 248 261 260 267 266 267 273 281 289 303 316 313 318 319 327 330 333 338 344 345 347 345
295 356 34 72 129 167 150 154 172 191 214 216 217 210 213 211 214 218 228 222 222 226 257 248 222 246 262 273 294 279 294 277 283 284 295 307 311 318 320 336 335 331 339 349 350 351 350
340 27 56 81 112 176 179 203 213 223 224 213 215 215 217 214 214 216 220 206 215 234 233 233 222 254 268 9 351 312 298 296 292 295 307 305 311 322 322 333 325 344 2 357 350 353 360
17 57 68 81 114 148 167 193 217 214 229 217 221 222 212 186 203 205 196 203 200 205 218 231 257 258 160 278 280 279 284 287 290 293 290 305 319 322 323 326 334 338 345 349 347 348 357
50 61 68 95 149 190 190 207 200 215 222 227 230 231 196 183 216 214 184 177 190 205 223 242 222 256 276 274 274 271 272 279 282 296 306 303 320 322 326 325 327 343 356 356 2 341 359
49 74 78 101 150 176 205 183 208 217 217 211 218 219 194 191 218 217 214 208 211 216 217 228 245 264 277 275 274 277 280 283 281 282 289 306 310 312 320 324 333 347 349 5 340 344 348
73 79 88 103 141 150 146 183 198 208 222 195 207 225 206 201 219 220 215 207 207 220 221 233 262 271 274 272 272 280 284 282 292 300 303 305 314 316 321 323 325 355 353 343 347 350 350
81 85 91 102 149 173 187 192 196 211 246 165 173 182 165 179 185 183 124 256 248 258 237 251 264 270 277 278 282 286 292 292 294 294 308 306 315 322 328 332 348 350 346 351 351 346 347